User: anonymous   Login
Location: Unspecified
(0.0000°N, 0.0000°E)
Time: 05:29:12
(UTC+00:00)
Language:

NUDT-PHONESAT - Orbit

View from above orbital plane
View from above orbital plane
View from above satellite
View from above satellite

Ground track
Ground track

The orbit data is extracted from the following two-line orbital elements,

1 40900U 15049B   20190.86269855  .00001496  00000-0  64308-4 0  9998
2 40900  97.4301 201.6304 0010660 269.2165 211.6743 15.24183387266458
Epoch (UTC): 08 July 2020 20:42:17
Eccentricity: 0.0010660
inclination: 97.4301°
perigee height: 486 km
apogee height: 500 km
right ascension of ascending node: 201.6304°
argument of perigee: 269.2165°
revolutions per day: 15.24183387
mean anomaly at epoch: 211.6743°
orbit number at epoch: 26645

The dashed part of the orbit path shows where the satellite is in the earth's shadow,  

DLR